Погода в Валансе

Франция     44°56′18″N   4°54′18″E
темп.,
°C
ветер,
м/с
пор.,
м/с
влажн.,
%
обл.,
%
осадки,
мм/ч
давл.,
гПа
погр.,
м
25 февраля, чт
чт2501:00+9ю36850 0.0 1033129
04:00+8ю35860 0.0 1032117
07:00+7ю24830 0.0 103287
10:00+11ю610700 0.0 1031494
13:00+15ююз710600 0.0 1030644
16:00+16ююз710590 0.0 1029711
19:00+11ю34760 0.0 103055
22:00+9ююв227854 0.0 103225
26 февраля, пт
пт2601:00+8ююв118059 0.0 103222
04:00+7с118078 0.0 103122
07:00+6с127887 0.0 103122
10:00+10ссз236757 0.0 1031203
13:00+14с456079 0.0 1029516
16:00+15с4561100 0.0 1027583
19:00+10ссв347751 0.0 102863
22:00+8ссв23870 0.0 102939
27 февраля, сб
сб2701:00+8ссв24932 0.0 102882
04:00+8с359369 0.0 1027171
07:00+9с379083 0.0 1027307
10:00+10с4684100 0.0 1027476
13:00+12с677494 0.1 1027753
16:00+12с677141 0.0 1026790
19:00+9с498633 0.0 1027247
22:00+8с248925 0.0 102880
28 февраля, вс
вс2801:00+7с229114 0.0 102930
04:00+5с239319 0.0 102851
07:00+5с229418 0.0 102830
10:00+8ссз228018 0.0 1028249
13:00+13сз116517 0.0 1027423
16:00+15ю23570 0.0 1025687
19:00+11юв227333 0.0 102622
22:00+9ююв11807 0.0 102822
1 марта, пн
пн101:00+8ю118517 0.0 102822
04:00+7ю118874 0.0 102822
07:00+6юв018970 0.0 102822
10:00+10ююз237590 0.0 1028296
13:00+14ююз576195 0.0 1027813
16:00+14ююз585998 0.0 1026838
19:00+10ю347598 0.0 102867
22:00+8ю248277 0.0 103056